Weather History for Sault Ste Marie, MI

Change the Weather History Date:

Saturday, December 8, 2012

  Actual Average Record
Temperature  
Mean Temperature 28 °F 25 °F  
Max Temperature 30 °F 31 °F 46 °F (1923)
Min Temperature 25 °F 19 °F -8 °F (1895)
Degree Days  
Heating Degree Days 37 40  
Month to date heating degree days 257 309  
Since 1 July heating degree days 2045 2241  
Moisture  
Dew Point 20 °F    
Average Humidity 76    
Maximum Humidity 88    
Minimum Humidity 63    
Precipitation  
Precipitation T in 0.10 in 0.85 in (1927)
Month to date precipitation 0.82 0.82  
Year to date precipitation 27.03 30.98  
Snow  
Snow 0.10 in 1.00 in 8.80 in (1949)
Month to date snowfall 2.8 7.9  
Since 1 July snowfall 25.8 24.6  
Snow Depth 2.00 in    
Sea Level Pressure  
Sea Level Pressure 30.04 in    
Wind  
Wind Speed 3 mph (NE)    
Max Wind Speed 8 mph    
Max Gust Speed 10 mph    
Visibility 9 miles    
Events Snow    
T = Trace of Precipitation, MM = Missing Value Source: NWS Daily Summary

Daily Weather History Graph

Daily Weather History Graph

Search for Another Location

Airport:

Trip Planner

Search our weather history database for the weather conditions in past years. The results will help you decide how hot, cold, wet, or windy it might be!

Date:

Astronomy

Dec. 08, 2012 Rise Set
Actual Time 8:08 AM EST 4:50 PM EST
Civil Twilight 7:34 AM EST 5:25 PM EST
Nautical Twilight 6:55 AM EST 6:03 PM EST
Astronomical Twilight 6:19 AM EST 6:39 PM EST
Moon 2:16 AM EST (12/8) 1:33 PM EST (12/8)
Length of Visible Light 9h 51m
Length of Day
8h 41m
Waning Crescent, 28% of the Moon is Illuminated
Dec 8
Waning Crescent
Dec 13
New
Dec 20
First Quarter
Dec 28
Full
Jan 4
Last Quarter

Hourly Weather History & Observations

Time (EST) Temp. Windchill Dew Point Humidity Pressure Visibility Wind Dir Wind Speed Gust Speed Precip Events Conditions
12:39 AM 28.9 °F 21.9 °F 19.9 °F 69% 29.99 in 10.0 mi ENE 6.9 mph - N/A   Overcast
12:55 AM 28.9 °F 23.9 °F 19.0 °F 67% 30.02 in 10.0 mi NE 4.6 mph - N/A   Overcast
1:06 AM 28.9 °F 23.9 °F 19.0 °F 67% 30.00 in 10.0 mi NE 4.6 mph - N/A   Overcast
1:55 AM 28.0 °F 22.8 °F 19.0 °F 69% 30.01 in 10.0 mi East 4.6 mph - N/A   Overcast
2:30 AM 28.0 °F 21.7 °F 18.0 °F 66% 29.98 in 10.0 mi East 5.8 mph - N/A   Overcast
2:55 AM 27.0 °F 20.5 °F 17.1 °F 66% 30.01 in 10.0 mi ENE 5.8 mph - N/A   Overcast
3:55 AM 27.0 °F 20.5 °F 18.0 °F 69% 30.00 in 10.0 mi ENE 5.8 mph - 0.00 in   Overcast
4:55 AM 26.1 °F 20.5 °F 19.0 °F 75% 29.99 in 7.0 mi ENE 4.6 mph - 0.00 in Snow Light Snow
5:35 AM 26.1 °F 21.9 °F 19.9 °F 78% 29.96 in 2.5 mi ENE 3.5 mph - 0.00 in Snow Light Snow
5:55 AM 25.0 °F 19.3 °F 19.9 °F 81% 29.98 in 2.5 mi ENE 4.6 mph - 0.00 in Snow Light Snow
6:02 AM 25.0 °F 20.7 °F 21.0 °F 85% 29.96 in 3.0 mi ENE 3.5 mph - 0.00 in Snow Light Snow
6:55 AM 26.1 °F - 21.0 °F 81% 29.98 in 6.0 mi Calm Calm - 0.00 in   Overcast
7:55 AM 25.0 °F - 21.0 °F 85% 30.00 in 10.0 mi Calm Calm - 0.00 in   Overcast
8:32 AM 26.1 °F 21.9 °F 21.0 °F 81% 29.97 in 2.0 mi North 3.5 mph - 0.00 in Snow Light Snow
8:55 AM 26.1 °F - 21.0 °F 81% 30.01 in 2.5 mi Calm Calm - 0.00 in Snow Light Snow
9:14 AM 26.1 °F - 21.0 °F 81% 29.99 in 4.0 mi Calm Calm - 0.00 in   Overcast
9:55 AM 26.1 °F 21.9 °F 21.0 °F 81% 30.02 in 10.0 mi NE 3.5 mph - 0.00 in   Overcast
10:15 AM 26.1 °F 21.9 °F 21.0 °F 81% 30.00 in 10.0 mi East 3.5 mph - 0.00 in   Overcast
10:55 AM 27.0 °F 20.5 °F 21.0 °F 78% 30.03 in 10.0 mi ENE 5.8 mph - 0.00 in   Unknown
11:23 AM 28.0 °F 24.2 °F 21.0 °F 75% 30.00 in 10.0 mi North 3.5 mph - 0.00 in   Overcast
11:46 AM 28.0 °F 22.8 °F 21.0 °F 75% 29.99 in 10.0 mi North 4.6 mph - 0.00 in   Overcast
11:55 AM 28.0 °F 22.8 °F 21.0 °F 75% 30.01 in 10.0 mi North 4.6 mph - 0.00 in   Overcast
12:23 PM 28.0 °F 21.7 °F 21.0 °F 75% 29.98 in 10.0 mi North 5.8 mph - 0.00 in   Overcast
12:43 PM 28.0 °F 24.2 °F 21.0 °F 75% 29.99 in 10.0 mi North 3.5 mph - 0.00 in   Overcast
12:55 PM 28.9 °F 25.2 °F 21.0 °F 72% 30.01 in 9.0 mi North 3.5 mph - 0.00 in   Overcast
1:12 PM 28.9 °F 21.9 °F 21.9 °F 75% 29.99 in 10.0 mi NW 6.9 mph - 0.00 in   Overcast
1:26 PM 28.9 °F 23.9 °F 21.0 °F 72% 30.00 in 10.0 mi NNW 4.6 mph - 0.00 in   Overcast
1:42 PM 28.9 °F 23.9 °F 21.0 °F 72% 29.99 in 10.0 mi North 4.6 mph - 0.00 in   Overcast
1:55 PM 28.9 °F - 21.0 °F 72% 30.02 in 10.0 mi Calm Calm - 0.00 in   Overcast
2:55 PM 28.9 °F - 19.9 °F 69% 30.03 in 10.0 mi Calm Calm - 0.00 in   Overcast
3:55 PM 28.9 °F 25.2 °F 19.0 °F 67% 30.05 in 10.0 mi North 3.5 mph - 0.00 in   Overcast
4:45 PM 28.9 °F - 19.9 °F 69% 30.04 in 10.0 mi Calm Calm - 0.00 in   Overcast
4:55 PM 28.9 °F 25.2 °F 19.0 °F 67% 30.07 in 10.0 mi NNW 3.5 mph - 0.00 in   Overcast
5:55 PM 28.9 °F - 19.9 °F 69% 30.09 in 10.0 mi Calm Calm - 0.00 in   Overcast
6:22 PM 28.9 °F 25.2 °F 19.9 °F 69% 30.07 in 10.0 mi NE 3.5 mph - 0.00 in   Overcast
6:55 PM 28.9 °F - 18.0 °F 64% 30.12 in 10.0 mi Calm Calm - 0.00 in   Overcast
7:50 PM 28.4 °F - 17.6 °F 64% 30.14 in 10.0 mi Calm Calm - 0.00 in   Overcast
7:55 PM 28.0 °F - 18.0 °F 66% 30.17 in 10.0 mi Calm Calm - 0.00 in   Overcast
8:55 PM 28.0 °F 22.8 °F 18.0 °F 66% 30.17 in 10.0 mi NNE 4.6 mph - 0.00 in   Overcast
9:55 PM 26.1 °F 20.5 °F 17.1 °F 69% 30.17 in 10.0 mi ENE 4.6 mph - 0.00 in   Mostly Cloudy
10:55 PM 26.1 °F 21.9 °F 18.0 °F 71% 30.19 in 10.0 mi ESE 3.5 mph - 0.00 in   Overcast
11:55 PM 25.0 °F - 19.0 °F 78% 30.22 in 10.0 mi Calm Calm - N/A   Overcast